This is the latest recevied weather packets stored in our database for station/object WD7OO. If no packets are shown the sender has not sent any weather packets the latest 10 day(s).
| Time | Temp. | Humidity | Pressure | Rain* | Wind** | Luminosity | Snow |
|---|---|---|---|---|---|---|---|
| 1788351463 | 23.89° C | 96% | 1016.8 hPa | 0 mm | - | 56 W/m² | - |
| 1788351158 | 23.33° C | 97% | 1016.6 hPa | 0 mm | - | 52 W/m² | - |
| 1788350853 | 22.78° C | 99% | 1016.9 hPa | 0 mm | - | 49 W/m² | - |
| 1788350550 | 22.78° C | 99% | 1016.9 hPa | 0 mm | - | 42 W/m² | - |
| 1788350244 | 22.78° C | 99% | 1016.5 hPa | 0 mm | - | 36 W/m² | - |
| 1788349940 | 22.22° C | 99% | 1016.6 hPa | 0 mm | - | 32 W/m² | - |
| 1788349636 | 22.22° C | 99% | 1016.6 hPa | 0 mm | - | 26 W/m² | - |
| 1788349331 | 22.22° C | 99% | 1016.6 hPa | 0 mm | - | 23 W/m² | - |
| 1788349037 | 22.22° C | 99% | 1016.6 hPa | 0 mm | - | 18 W/m² | - |
| 1788348721 | 22.22° C | 99% | 1016.6 hPa | 0 mm | - | 13 W/m² | - |
| 1788348420 | 22.22° C | 99% | 1016.5 hPa | 0 mm | - | 10 W/m² | - |
| 1788348118 | 22.22° C | 99% | 1016.2 hPa | 0 mm | - | 6 W/m² | - |
| 1788347813 | 22.22° C | 99% | 1016.3 hPa | 0 mm | - | 3 W/m² | - |
| 1788347509 | 22.22° C | 99% | 1016.3 hPa | 0 mm | - | 0 W/m² | - |
| 1788347204 | 22.22° C | 99% | 1016.4 hPa | 0 mm | - | 0 W/m² | - |
| 1788346901 | 22.22° C | 99% | 1016 hPa | 0 mm | - | 0 W/m² | - |
| 1788346600 | 22.22° C | 99% | 1016.4 hPa | 0 mm | - | 0 W/m² | - |
| 1788346295 | 22.22° C | 99% | 1016.6 hPa | 0 mm | - | 0 W/m² | - |
| 1788345991 | 22.22° C | 99% | 1016.3 hPa | 0 mm | - | 0 W/m² | - |
| 1788345686 | 22.22° C | 99% | 1016.4 hPa | 0 mm | - | 0 W/m² | - |
| 1788345385 | 22.22° C | 99% | 1016.4 hPa | 0 mm | - | 0 W/m² | - |
| 1788345080 | 22.78° C | 99% | 1016.1 hPa | 0 mm | - | 0 W/m² | - |
| 1788344777 | 22.78° C | 99% | 1016.1 hPa | 0 mm | - | 0 W/m² | - |
| 1788344474 | 22.78° C | 99% | 1016.3 hPa | 0 mm | - | 0 W/m² | - |
| 1788344169 | 22.78° C | 99% | 1016.3 hPa | 0 mm | - | 0 W/m² | - |
* Rain latest hour (hover to see other rain measurements)
** Current wind speed in m/s (hover to see current wind gust speed)